Location: Saratoga Springs
(43.0831°N, 73.7850°W)
Time: 12:13:58
(UTC-04:00)

Transit 4A - Pass Details

Date: 21 April 2024
Orbit: 871 x 971 km, 66.8° (Epoch: 20 May)

Event Time Altitude Azimuth Distance (km) Brightness Sun altitude
Rises 21:51:51 0° 330° (NNW) 3,468 12.2 -20.8°
Reaches altitude 10° 21:54:21 10° 332° (NNW) 2,527 11.2 -21.1°
Maximum altitude 22:00:11 73° 58° (ENE) 919 7.8 -21.9°
Enters shadow 22:01:53 47° 128° (SE) 1,154 7.9 -22.1°
